Location: Newark
(30.0333°N, 31.2167°E)
Time: 10:15:10
(UTC+00:00)

LightSail 2 - Visible Passes

Search period start: 19 October 2019 00:00
Search period end: 29 October 2019 00:00
Orbit: 707 x 722 km, 24.0° (Epoch: 18 October)

Date Brightness Start Highest point End Pass type
(mag) Time Alt. Az. Time Alt. Az. Time Alt. Az.
19 Oct 6.5 16:53:15 10° WSW 16:57:45 30° SSW 16:59:32 24° SSE visible
20 Oct 6.4 15:55:36 10° WSW 16:00:15 35° S 16:04:55 10° SE visible
20 Oct 7.3 17:41:57 10° WSW 17:44:39 17° SSW 17:44:39 17° SSW visible
21 Oct 7.0 16:43:57 10° WSW 16:47:53 22° SSW 16:50:49 14° SSE visible
22 Oct 6.9 15:46:07 10° WSW 15:50:25 27° SSW 15:54:43 10° SE visible
22 Oct 7.7 17:34:03 10° SW 17:35:25 11° SSW 17:36:04 11° SSW visible
23 Oct 7.5 16:35:07 10° SW 16:37:58 15° SSW 16:40:50 10° SSE visible
24 Oct 7.4 15:36:54 10° WSW 15:40:30 19° SSW 15:44:06 10° SSE visible
